Location: Arrien
(43.3167°N, 0.1500°W)
Time: 18:19:06
(UTC+00:00)

Cosmos 2082 - Pass Details

Date: 23 May 2022
Orbit: 835 x 853 km, 71.0° (Epoch: 01 July)

Event Time Altitude Azimuth Distance (km) Brightness Sun altitude
Rises 22:18:43 0° 326° (NW) 3,399 8.3 -22.1°
Reaches altitude 10° 22:21:22 10° 317° (NW) 2,458 7.1 -22.3°
Maximum altitude 22:26:19 32° 256° (WSW) 1,391 4.9 -22.6°
Enters shadow 22:28:15 26° 220° (SW) 1,600 4.9 -22.8°
